Location: Bernay
(48.6766°N, 2.9386°E)
Time: 14:06:20
(UTC+00:00)

NOSS 2-3 (C) - Visible Passes

Search period start: 11 April 2026 00:00
Search period end: 21 April 2026 00:00
Orbit: 454 x 1720 km, 63.3° (Epoch: 11 April)

Date Brightness Start Highest point End Pass type
(mag) Time Alt. Az. Time Alt. Az. Time Alt. Az.
11 Apr 4.6 19:35:50 10° NNW 19:40:27 48° NE 19:45:27 15° ESE visible
11 Apr 5.2 21:25:52 10° NW 21:30:49 40° WSW 21:32:29 34° SSW visible
12 Apr 4.5 20:35:24 10° NW 20:40:26 66° SW 20:44:00 28° SSE visible
12 Apr 6.6 22:27:34 10° W 22:30:27 14° WSW 22:31:02 14° WSW visible
13 Apr 4.2 19:45:08 10° NW 19:50:03 78° NE 19:55:34 16° SE visible
13 Apr 6.0 21:35:51 10° WNW 21:40:15 24° WSW 21:42:36 20° SSW visible
14 Apr 5.4 20:45:01 10° NW 20:49:57 39° WSW 20:54:14 19° S visible
15 Apr 4.6 19:54:31 10° NW 19:59:34 64° SW 20:05:56 13° SSE visible
15 Apr 6.8 21:46:49 10° W 21:49:34 13° WSW 21:52:38 10° SW visible
16 Apr 4.3 19:04:13 10° NW 19:09:10 80° NE 19:16:03 10° SE visible
16 Apr 6.2 20:55:00 10° WNW 20:59:21 23° WSW 21:04:47 10° SSW visible
17 Apr 5.5 20:04:08 10° WNW 20:09:02 38° WSW 20:15:34 10° S visible
18 Apr 4.8 19:13:36 10° NW 19:18:39 63° SW 19:25:38 10° SSE visible
18 Apr 6.9 21:06:02 10° W 21:08:37 13° WSW 21:11:29 10° SW visible
19 Apr 6.4 20:14:05 10° WNW 20:18:24 23° WSW 20:23:44 10° SSW visible
20 Apr 5.7 19:23:10 10° WNW 19:28:03 37° WSW 19:34:34 10° S visible
